Regional Weather Roundup
Issued by NWS

Current Version | Previous Version | Text Only | Print | Product List | Glossary On
Versions: 1 2 3 4 5 6 7 8 9 10 11 12 13 14 15 16 17 18 19 20 21 22 23 24 25 26 27 28 29 30 31 32 33 34 35 36 37 38 39 40 41 42 43 44 45 46 47 48 49 50
000
ASUS46 KSEW 241110
RWRWA

WASHINGTON REGIONAL WEATHER ROUNDUP
NATIONAL WEATHER SERVICE SEATTLE WA
300 AM PST FRI FEB 24 2017

NOTE:"FAIR" INDICATES FEW OR NO CLOUDS BELOW 12,000 FEET WITH NO
SIGNIFICANT WEATHER AND/OR OBSTRUCTIONS TO VISIBILITY.

WAZ507-509-555>559-241200-
SEATTLE, TACOMA, EVERETT, AND VICINITY

CITY           SKY/WX    TMP DP  RH WIND       PRES   REMARKS
EVERETT        CLOUDY    34  32  92 E7        30.13F
BOEING FIELD   PTCLDY    34  32  92 SE8       30.16F
RENTON         PTCLDY    33  32  96 SE3       30.16F
SEATAC AIRPORT PTCLDY    34  30  85 S3        30.15F
JBLM-MCCHORD   MOCLDY    29  29  99 S5        30.15F
PUYALLUP         N/A     34  30  86 CALM      30.15F
BREMERTON      CLOUDY    32  32 100 S3        30.16F VSB 1
JBLM-FT LEWIS  CLOUDY    30  30 100 SE7       30.15F
TACOMA NARROWS MOCLDY    34  33  96 SE3       30.15F
$$

WAZ001-503-506-510-514-515-241200-
NORTH INTERIOR

CITY           SKY/WX    TMP DP  RH WIND       PRES   REMARKS
BELLINGHAM     LGT SNOW  34  34 100 CALM      30.14S FOG
FRIDAY HARBOR  MOCLDY    38  34  85 E10       30.13F
EASTSOUND      PTCLDY    36  32  87 S5        30.11F
PORT ANGELES   CLOUDY    31  27  85 CALM      30.10F
EDIZ HOOK      FAIR      36  29  75 S5        30.12F
PORT TOWNSEND  FAIR      30  30 100 CALM      30.14F
NAS WHIDBEY    LGT RAIN  37  32  82 E10       30.17F
ARLINGTON      CLOUDY    34  27  75 CALM      30.17F
BURLINGTON     CLOUDY    36  32  87 E3        30.15S
$$

WAZ020-022-039-040-504-511-512-241200-
SOUTHWEST INTERIOR

CITY           SKY/WX    TMP DP  RH WIND       PRES   REMARKS
SHELTON        MOCLDY    29  27  92 CALM      30.13S
OLYMPIA        MOCLDY    32  31  96 SW5       30.16F
CHEHALIS       CLOUDY    34  34 100 S6        30.17F
KELSO          CLOUDY    35  33  92 SE6       30.21F
VANCOUVER      CLOUDY    35  35 100 SE5       30.21F
SCAPPOOSE, OR  CLOUDY    32  32 100 CALM      30.21S FOG
PORTLAND, OR   CLOUDY    34  32  92 SE6       30.22F
$$

WAZ021-516-517-241200-
WASHINGTON COAST

CITY           SKY/WX    TMP DP  RH WIND       PRES   REMARKS
FORKS          LGT SNOW  32  32 100 CALM      30.12F VSB 3/4
HOQUIAM        CLOUDY    35  34  96 E7        30.15F
ASTORIA, OR    LGT RAIN  34  31  88 S6        30.17F
$$

WAZ019-023-024-040-567>569-241200-
CASCADE MOUNTAINS AND COLUMBIA GORGE

CITY           SKY/WX    TMP DP  RH WIND       PRES   REMARKS
STAMPEDE PASS  NOT AVBL
TROUTDALE, OR  CLOUDY    33  32  96 CALM      30.22F
THE DALLES, OR CLEAR     28  24  85 CALM      30.19F
$$

WAZ026-027-041>044-520-521-241200-
EAST SLOPES

CITY           SKY/WX    TMP DP  RH WIND       PRES   REMARKS
OMAK           CLEAR     17   9  70 W5        30.12S
WENATCHEE      CLEAR     24  16  71 W10       30.10F WCI  14
ELLENSBURG     CLEAR     17  10  74 NE3       30.09F
YAKIMA         CLEAR     20  15  81 W6        30.13F
SUNNYSIDE ARPT SUNNY     21  19  93 CALM      30.15S
$$

WAZ028-034-035-241200-
COLUMBIA BASIN

CITY           SKY/WX    TMP DP  RH WIND       PRES   REMARKS
EPHRATA        CLEAR     21  13  71 N5        30.09F
MOSES LAKE     CLEAR     16  13  88 CALM      30.11S
PASCO          PTCLDY    27  23  85 SE3       30.16F
HERMISTON, OR  CLEAR     31  25  78 SW9       30.16S
$$

WAZ036>038-241200-
NORTHEAST WASHINGTON

CITY           SKY/WX    TMP DP  RH WIND       PRES   REMARKS
SPOKANE GEIGER CLEAR     21  18  88 SE6       30.06F
SPOKANE FELTS  CLEAR     22  20  92 NE3       30.10S
FAIRCHILD AFB  CLEAR     21  20  98 CALM      30.05F
COEURDALENE,ID CLEAR     14  11  87 CALM      30.08S FOG
DEER PARK      CLEAR     12   8  84 CALM      30.08S
$$

WAZ029>033-241200-
SOUTHEAST WASHINGTON

CITY           SKY/WX    TMP DP  RH WIND       PRES   REMARKS
PULLMAN        CLEAR     24  21  88 E3        30.09S
LEWISTON, ID   PTCLDY    27  21  78 S3        30.14S
WALLA WALLA    MOCLDY    32  26  78 S8        30.14S
PENDLETON, OR  MOCLDY    31  23  72 S5        30.13S
$$



USA.gov is the U.S. government's official web portal to all federal, state and local government web resources and services.